This demonstration page uses our WeatherBlox Daily Observations layout. Learn more.

Left ArrowRight Arrow

Hourly Observations for March 27, 2022

Temp ( °F °C ) Dew Point ( °F °C ) Humidity (%) Winds ( mph kmh ) Pressure ( in mb ) Visibility ( mi km ) Precip ( " mm )
12:53 am 00:53 Clear 71 21.7 11 -11.7 10 10 S 13 20 29.84 1011 10 16 0.00 0.00
1:53 am 01:53 Clear 69 20.6 12 -11.1 11 11 S 14 22 29.82 1010 10 16 0.00 0.00
2:53 am 02:53 Clear 68 20 13 -10.6 12 12 S 12 19 29.81 1009 10 16 0.00 0.00
3:53 am 03:53 Clear 66 18.9 13 -10.6 13 13 S 12 19 29.80 1009 10 16 0.00 0.00
4:53 am 04:53 Clear 61 16.1 13 -10.6 15 15 SSW 8 13 29.81 1009 10 16 0.00 0.00
5:53 am 05:53 Clear 59 15 13 -10.6 16 16 SSW 6 9 29.82 1010 10 16 0.00 0.00
6:53 am 06:53 Clear 57 13.9 13 -10.6 17 17 SSW 7 11 29.83 1010 10 16 0.00 0.00
7:53 am 07:53 Sunny 58 14.4 13 -10.6 17 17 S 9 15 29.85 1011 10 16 0.00 0.00
8:53 am 08:53 Sunny 65 18.3 15 -9.4 14 14 SSW 12 19 29.86 1011 10 16 0.00 0.00
9:53 am 09:53 Sunny 69 20.6 17 -8.3 14 14 S 13 20 29.87 1012 10 16 0.00 0.00
10:53 am 10:53 Sunny 75 23.9 17 -8.3 11 11 SSW 14 22 29.88 1012 10 16 0.00 0.00
11:53 am 11:53 Sunny 80 26.7 16 -8.9 9 9 SSW 12 19 29.87 1012 10 16 0.00 0.00
12:53 pm 12:53 Sunny 85 29.4 15 -9.4 7 7 SSW 9 15 29.84 1011 10 16 0.00 0.00
1:53 pm 13:53 Sunny 88 31.1 10 -12.2 5 5 SSW 8 13 29.81 1009 10 16 0.00 0.00
2:53 pm 14:53 Sunny 89 31.7 11 -11.7 5 5 SSW 7 11 29.78 1008 10 16 0.00 0.00
3:53 pm 15:53 Sunny 90 32.2 8 -13.3 4 4 VRB 5 7 29.75 1007 10 16 0.00 0.00
4:53 pm 16:53 Sunny 92 33.3 7 -13.9 4 4 SW 14 22 29.73 1007 10 16 0.00 0.00
5:53 pm 17:53 Sunny 91 32.8 8 -13.3 4 4 SSW 8 13 29.73 1007 10 16 0.00 0.00
6:53 pm 18:53 Sunny 89 31.7 11 -11.7 5 5 SSE 15 24 29.74 1007 10 16 0.00 0.00
7:53 pm 19:53 Sunny 85 29.4 13 -10.6 7 7 S 16 26 29.75 1008 10 16 0.00 0.00
8:53 pm 20:53 Clear 81 27.2 15 -9.4 8 8 S 15 24 29.77 1008 10 16 0.00 0.00
9:53 pm 21:53 Clear 78 25.6 16 -8.9 9 9 S 14 22 29.78 1009 10 16 0.00 0.00
10:53 pm 22:53 Clear 75 23.9 17 -8.3 11 11 S 15 24 29.79 1009 10 16 0.00 0.00
11:53 pm 23:53 Clear 74 23.3 20 -6.7 13 13 S 16 26 29.79 1009 10 16 0.00 0.00

Powered by AerisWeather